Schneifelwetter: Wetterstation Hallschlag, 537 m . NN
Wetterdaten: Sonntag, 29.06.2008
Datum Zeit Temp. A. Temp. 2 Feuchte A. Luftdruck Regen Wind Richtung Richtung Sonnenschein Helligkeit T Regen Taupunkt Windchill
29.06.2008 00:11 13,2 C 12,2 C 89 % 1019 hPa 0,0 l/m 4,6 km/h (1 Bft) W-SW 250 0 min 0 lux 0,00 min 11,4 C 13,2 C
29.06.2008 00:26 12,9 C 12,2 C 89 % 1019 hPa 0,0 l/m 0,1 km/h (0 Bft) W-SW 250 0 min 0 lux 0,00 min 11,1 C 12,9 C
29.06.2008 00:41 13,0 C 12,4 C 90 % 1019 hPa 0,0 l/m 9,2 km/h (2 Bft) W22.5 260 0 min 0 lux 0,00 min 11,4 C 11,3 C
29.06.2008 00:56 12,8 C 12,2 C 91 % 1019 hPa 0,0 l/m 8,6 km/h (2 Bft) W-SW22.5 255 0 min 0 lux 0,00 min 11,4 C 11,4 C
29.06.2008 01:11 12,8 C 12,1 C 91 % 1019 hPa 0,0 l/m 10,8 km/h (2 Bft) W-SW22.5 255 0 min 0 lux 0,00 min 11,4 C 10,3 C
29.06.2008 01:26 12,9 C 12,0 C 91 % 1019 hPa 0,0 l/m 15,5 km/h (3 Bft) W45 270 0 min 0 lux 0,00 min 11,5 C 8,5 C
29.06.2008 01:41 12,7 C 11,7 C 90 % 1019 hPa 0,0 l/m 12,5 km/h (3 Bft) W22.5 260 0 min 0 lux 0,00 min 11,1 C 9,4 C
29.06.2008 01:55 12,2 C 11,1 C 90 % 1019 hPa 0,0 l/m 7,4 km/h (2 Bft) W-SW22.5 245 0 min 0 lux 0,00 min 10,6 C 11,5 C
29.06.2008 02:10 11,5 C 10,4 C 90 % 1019 hPa 0,0 l/m 0,0 km/h (0 Bft) W-SW 255 0 min 0 lux 0,00 min 9,9 C 11,5 C
29.06.2008 02:25 11,2 C 10,2 C 91 % 1019 hPa 0,0 l/m 6,8 km/h (2 Bft) SW22.5 225 0 min 0 lux 0,00 min 9,8 C 10,9 C
29.06.2008 02:40 11,1 C 10,4 C 92 % 1019 hPa 0,0 l/m 14,8 km/h (3 Bft) W22.5 260 0 min 0 lux 0,00 min 9,8 C 6,5 C
29.06.2008 02:55 11,1 C 10,3 C 93 % 1019 hPa 0,0 l/m 12,1 km/h (2 Bft) W-SW22.5 250 0 min 0 lux 0,00 min 10,0 C 7,7 C
29.06.2008 03:10 11,1 C 10,3 C 93 % 1019 hPa 0,0 l/m 9,5 km/h (2 Bft) W-SW22.5 255 0 min 0 lux 0,00 min 10,0 C 9,1 C
29.06.2008 03:25 11,1 C 10,3 C 93 % 1019 hPa 0,0 l/m 12,8 km/h (3 Bft) W22.5 260 0 min 0 lux 0,00 min 10,0 C 7,4 C
29.06.2008 03:40 11,1 C 10,5 C 93 % 1018 hPa 0,0 l/m 12,9 km/h (3 Bft) W-SW22.5 250 0 min 0 lux 0,00 min 10,0 C 7,4 C
29.06.2008 03:55 11,2 C 10,6 C 94 % 1019 hPa 0,0 l/m 11,8 km/h (2 Bft) W-SW45 255 0 min 0 lux 0,00 min 10,3 C 8,0 C
29.06.2008 04:10 11,2 C 10,6 C 94 % 1019 hPa 0,0 l/m 9,8 km/h (2 Bft) W-SW22.5 245 0 min 0 lux 0,00 min 10,3 C 9,0 C
29.06.2008 04:25 11,2 C 10,5 C 93 % 1019 hPa 0,0 l/m 12,8 km/h (3 Bft) W-SW45 245 0 min 0 lux 0,00 min 10,1 C 7,5 C
29.06.2008 04:40 11,2 C 10,5 C 93 % 1018 hPa 0,0 l/m 16,8 km/h (3 Bft) W-SW45 240 0 min 0 lux 0,00 min 10,1 C 5,9 C
29.06.2008 04:55 11,1 C 10,4 C 93 % 1019 hPa 0,0 l/m 17,0 km/h (3 Bft) SW67.5 235 0 min 47 lux 0,00 min 10,0 C 5,7 C
29.06.2008 05:10 10,9 C 10,3 C 93 % 1018 hPa 0,0 l/m 13,5 km/h (3 Bft) W-SW67.5 250 0 min 209 lux 0,00 min 9,8 C 6,9 C
29.06.2008 05:25 10,8 C 10,1 C 93 % 1018 hPa 0,0 l/m 13,8 km/h (3 Bft) SW22.5 230 0 min 754 lux 0,00 min 9,7 C 6,6 C
29.06.2008 05:40 10,8 C 10,0 C 93 % 1018 hPa 0,0 l/m 15,6 km/h (3 Bft) W-SW45 240 0 min 2,84 klux 0,00 min 9,7 C 5,9 C
29.06.2008 05:55 10,8 C 10,0 C 93 % 1019 hPa 0,0 l/m 13,8 km/h (3 Bft) W-SW67.5 245 0 min 6,81 klux 0,00 min 9,7 C 6,6 C
29.06.2008 06:10 11,0 C 10,0 C 93 % 1018 hPa 0,0 l/m 13,0 km/h (3 Bft) W-SW45 250 0 min 10,6 klux 0,00 min 9,9 C 7,2 C
29.06.2008 06:25 11,8 C 10,2 C 91 % 1018 hPa 0,0 l/m 18,6 km/h (3 Bft) W-SW22.5 245 0 min 15,3 klux 0,00 min 10,4 C 6,0 C
29.06.2008 06:40 13,2 C 10,4 C 87 % 1019 hPa 0,0 l/m 15,2 km/h (3 Bft) W-SW22.5 250 0 min 19,3 klux 0,00 min 11,1 C 8,9 C
29.06.2008 06:55 14,4 C 10,7 C 83 % 1018 hPa 0,0 l/m 17,3 km/h (3 Bft) W-SW67.5 245 0 min 24,8 klux 0,00 min 11,5 C 9,7 C
29.06.2008 07:10 15,2 C 11,2 C 79 % 1018 hPa 0,0 l/m 22,4 km/h (4 Bft) W-SW22.5 250 0 min 28,6 klux 0,00 min 11,6 C 9,4 C
29.06.2008 07:25 15,7 C 12,0 C 77 % 1018 hPa 0,0 l/m 27,1 km/h (4 Bft) W-SW45 255 0 min 35,6 klux 0,00 min 11,7 C 9,2 C
29.06.2008 07:40 15,5 C 12,3 C 76 % 1018 hPa 0,0 l/m 25,0 km/h (4 Bft) W-SW45 250 0 min 36,2 klux 0,00 min 11,3 C 9,3 C
29.06.2008 07:55 15,6 C 12,8 C 75 % 1018 hPa 0,0 l/m 29,3 km/h (5 Bft) W-SW45 255 0 min 39,2 klux 0,00 min 11,2 C 8,6 C
29.06.2008 08:10 16,0 C 13,3 C 75 % 1019 hPa 0,0 l/m 33,4 km/h (5 Bft) W-SW45 255 0 min 44,2 klux 0,00 min 11,6 C 8,6 C
29.06.2008 08:25 16,9 C 14,0 C 75 % 1018 hPa 0,0 l/m 28,0 km/h (4 Bft) W-SW45 255 0 min 48,1 klux 0,00 min 12,4 C 10,7 C
29.06.2008 08:40 17,6 C 14,7 C 70 % 1019 hPa 0,0 l/m 29,5 km/h (5 Bft) W-SW45 250 0 min 52,3 klux 0,00 min 12,1 C 11,4 C
29.06.2008 08:55 18,2 C 15,5 C 68 % 1018 hPa 0,0 l/m 27,0 km/h (4 Bft) W45 265 0 min 55,6 klux 0,00 min 12,2 C 12,6 C
29.06.2008 09:10 18,4 C 15,5 C 64 % 1018 hPa 0,0 l/m 34,3 km/h (5 Bft) W-SW45 255 15 min 62,3 klux 0,00 min 11,5 C 11,9 C
29.06.2008 09:32 18,0 C 15,7 C 64 % 1018 hPa 0,0 l/m 33,2 km/h (5 Bft) W-SW67.5 245 22 min 62,5 klux 0,00 min 11,1 C 11,5 C
29.06.2008 09:47 18,4 C 16,1 C 63 % 1018 hPa 0,0 l/m 32,7 km/h (5 Bft) W45 265 15 min 65,2 klux 0,00 min 11,2 C 12,1 C
29.06.2008 10:01 18,8 C 16,6 C 62 % 1018 hPa 0,0 l/m 35,7 km/h (5 Bft) W45 260 14 min 68,4 klux 0,00 min 11,4 C 12,4 C
29.06.2008 10:16 18,9 C 16,9 C 63 % 1018 hPa 0,0 l/m 35,3 km/h (5 Bft) W-SW45 245 15 min 71,5 klux 0,00 min 11,7 C 12,5 C
29.06.2008 10:31 19,4 C 17,5 C 64 % 1018 hPa 0,0 l/m 35,8 km/h (5 Bft) W45 265 15 min 74,5 klux 0,00 min 12,4 C 13,2 C
29.06.2008 10:46 19,9 C 18,1 C 63 % 1018 hPa 0,0 l/m 33,2 km/h (5 Bft) W-SW45 245 15 min 77,1 klux 0,00 min 12,6 C 14,2 C
29.06.2008 11:02 20,3 C 18,5 C 62 % 1018 hPa 0,0 l/m 39,3 km/h (6 Bft) W45 260 16 min 80,4 klux 0,00 min 12,8 C 14,2 C
29.06.2008 11:17 20,8 C 19,2 C 61 % 1018 hPa 0,0 l/m 38,4 km/h (5 Bft) W67.5 280 15 min 82,7 klux 0,00 min 13,0 C 15,0 C
29.06.2008 11:32 21,2 C 20,0 C 61 % 1018 hPa 0,0 l/m 35,6 km/h (5 Bft) W-SW45 255 15 min 84,8 klux 0,00 min 13,4 C 15,9 C
29.06.2008 11:46 21,7 C 20,6 C 60 % 1018 hPa 0,0 l/m 38,8 km/h (5 Bft) W45 260 14 min 89,1 klux 0,00 min 13,6 C 16,3 C
29.06.2008 12:01 21,6 C 20,6 C 59 % 1018 hPa 0,0 l/m 33,7 km/h (5 Bft) SW67.5 235 15 min 89,0 klux 0,00 min 13,2 C 16,6 C
29.06.2008 12:16 21,3 C 21,0 C 60 % 1018 hPa 0,0 l/m 38,8 km/h (5 Bft) W-SW67.5 240 15 min 90,9 klux 0,00 min 13,2 C 15,7 C
29.06.2008 12:31 21,1 C 21,3 C 60 % 1018 hPa 0,0 l/m 33,5 km/h (5 Bft) W-SW67.5 245 15 min 92,4 klux 0,00 min 13,0 C 15,9 C
29.06.2008 12:46 20,8 C 21,5 C 60 % 1018 hPa 0,0 l/m 33,1 km/h (5 Bft) W-SW45 245 15 min 96,5 klux 0,00 min 12,7 C 15,5 C
29.06.2008 13:02 21,0 C 22,2 C 60 % 1018 hPa 0,0 l/m 35,4 km/h (5 Bft) W22.5 265 16 min 94,3 klux 0,00 min 12,9 C 15,6 C
29.06.2008 13:17 21,2 C 22,8 C 60 % 1018 hPa 0,0 l/m 26,6 km/h (4 Bft) SW67.5 215 15 min 94,0 klux 0,00 min 13,1 C 16,8 C
29.06.2008 13:32 21,4 C 23,5 C 59 % 1018 hPa 0,0 l/m 31,8 km/h (5 Bft) W-SW45 255 15 min 95,9 klux 0,00 min 13,0 C 16,5 C
29.06.2008 13:47 21,5 C 24,3 C 59 % 1018 hPa 0,0 l/m 25,1 km/h (4 Bft) SW45 225 15 min 96,0 klux 0,00 min 13,1 C 17,4 C
29.06.2008 14:01 21,7 C 25,1 C 57 % 1018 hPa 0,0 l/m 31,8 km/h (5 Bft) W-SW67.5 240 14 min 94,4 klux 0,00 min 12,8 C 16,9 C
29.06.2008 14:16 21,8 C 25,6 C 58 % 1018 hPa 0,0 l/m 34,9 km/h (5 Bft) W22.5 265 15 min 94,4 klux 0,00 min 13,2 C 16,8 C
29.06.2008 14:31 21,9 C 25,9 C 54 % 1018 hPa 0,0 l/m 32,4 km/h (5 Bft) SW45 235 15 min 93,8 klux 0,00 min 12,2 C 17,2 C
29.06.2008 14:46 21,9 C 26,4 C 56 % 1018 hPa 0,0 l/m 29,2 km/h (5 Bft) W45 260 15 min 93,7 klux 0,00 min 12,7 C 17,5 C
29.06.2008 15:02 22,0 C 27,0 C 55 % 1018 hPa 0,0 l/m 33,9 km/h (5 Bft) W45 260 16 min 92,7 klux 0,00 min 12,5 C 17,2 C
29.06.2008 15:17 22,1 C 27,3 C 54 % 1018 hPa 0,0 l/m 33,2 km/h (5 Bft) W-SW45 255 15 min 93,3 klux 0,00 min 12,3 C 17,4 C
29.06.2008 15:32 22,4 C 27,4 C 55 % 1017 hPa 0,0 l/m 28,8 km/h (4 Bft) SW45 225 15 min 102 klux 0,00 min 12,9 C 18,2 C
29.06.2008 15:46 22,6 C 28,4 C 56 % 1017 hPa 0,0 l/m 27,7 km/h (4 Bft) W-SW22.5 255 14 min 93,7 klux 0,00 min 13,4 C 18,6 C
29.06.2008 16:01 22,8 C 27,9 C 55 % 1017 hPa 0,0 l/m 32,2 km/h (5 Bft) W-SW45 250 15 min 98,4 klux 0,00 min 13,3 C 18,5 C
29.06.2008 16:16 23,2 C 28,9 C 53 % 1017 hPa 0,0 l/m 31,9 km/h (5 Bft) W-SW45 245 15 min 91,8 klux 0,00 min 13,1 C 19,1 C
29.06.2008 16:31 23,1 C 27,5 C 53 % 1017 hPa 0,0 l/m 35,2 km/h (5 Bft) W45 260 15 min 89,6 klux 0,00 min 13,0 C 18,6 C
29.06.2008 16:47 23,2 C 28,7 C 54 % 1017 hPa 0,0 l/m 32,1 km/h (5 Bft) W-SW45 255 16 min 88,5 klux 0,00 min 13,4 C 19,0 C
29.06.2008 17:02 23,0 C 28,0 C 53 % 1017 hPa 0,0 l/m 33,5 km/h (5 Bft) W-SW45 250 15 min 78,4 klux 0,00 min 12,9 C 18,6 C
29.06.2008 17:17 22,5 C 28,2 C 54 % 1017 hPa 0,0 l/m 28,5 km/h (4 Bft) W-SW22.5 255 15 min 73,4 klux 0,00 min 12,7 C 18,4 C
29.06.2008 17:31 22,5 C 28,1 C 53 % 1017 hPa 0,0 l/m 32,6 km/h (5 Bft) W-SW45 250 14 min 71,4 klux 0,00 min 12,4 C 18,0 C
29.06.2008 17:46 22,4 C 27,9 C 54 % 1017 hPa 0,0 l/m 33,4 km/h (5 Bft) W-SW22.5 255 15 min 70,9 klux 0,00 min 12,6 C 17,8 C
29.06.2008 18:01 22,5 C 28,0 C 54 % 1017 hPa 0,0 l/m 28,3 km/h (4 Bft) W-SW45 250 15 min 71,8 klux 0,00 min 12,7 C 18,4 C
29.06.2008 18:16 22,6 C 28,4 C 54 % 1017 hPa 0,0 l/m 25,9 km/h (4 Bft) W-SW67.5 245 15 min 67,5 klux 0,00 min 12,8 C 18,8 C
29.06.2008 18:32 22,4 C 28,7 C 55 % 1017 hPa 0,0 l/m 26,8 km/h (4 Bft) W-SW22.5 255 0 min 59,5 klux 0,00 min 12,9 C 18,4 C
29.06.2008 18:47 22,0 C 27,4 C 56 % 1017 hPa 0,0 l/m 27,6 km/h (4 Bft) W-SW45 240 0 min 57,8 klux 0,00 min 12,8 C 17,8 C
29.06.2008 19:02 22,0 C 27,3 C 56 % 1017 hPa 0,0 l/m 24,8 km/h (4 Bft) W22.5 270 0 min 52,8 klux 0,00 min 12,8 C 18,1 C
29.06.2008 19:16 21,7 C 26,3 C 57 % 1017 hPa 0,0 l/m 26,8 km/h (4 Bft) W-SW67.5 255 0 min 47,7 klux 0,00 min 12,8 C 17,5 C
29.06.2008 19:31 21,2 C 25,6 C 58 % 1017 hPa 0,0 l/m 22,1 km/h (4 Bft) W45 260 0 min 43,8 klux 0,00 min 12,6 C 17,4 C
29.06.2008 19:46 21,0 C 25,3 C 58 % 1017 hPa 0,0 l/m 28,1 km/h (4 Bft) W45 265 0 min 41,0 klux 0,00 min 12,4 C 16,3 C
29.06.2008 20:01 19,8 C 24,1 C 59 % 1017 hPa 0,0 l/m 28,5 km/h (4 Bft) W45 265 0 min 35,3 klux 0,00 min 11,6 C 14,6 C
29.06.2008 20:16 18,9 C 22,5 C 62 % 1017 hPa 0,0 l/m 29,6 km/h (5 Bft) W45 265 0 min 30,3 klux 0,00 min 11,5 C 13,2 C
29.06.2008 20:32 18,2 C 20,7 C 64 % 1017 hPa 0,0 l/m 23,2 km/h (4 Bft) W22.5 265 0 min 22,9 klux 0,00 min 11,3 C 13,3 C
29.06.2008 20:47 17,9 C 19,2 C 66 % 1017 hPa 0,0 l/m 16,6 km/h (3 Bft) W-SW22.5 255 0 min 10,6 klux 0,00 min 11,5 C 14,3 C
29.06.2008 21:02 17,3 C 18,0 C 68 % 1017 hPa 0,0 l/m 21,0 km/h (4 Bft) W45 260 0 min 6,24 klux 0,00 min 11,3 C 12,5 C
29.06.2008 21:16 16,9 C 17,1 C 70 % 1017 hPa 0,0 l/m 21,8 km/h (4 Bft) W45 265 0 min 3,58 klux 0,00 min 11,4 C 11,8 C
29.06.2008 21:31 16,7 C 16,7 C 71 % 1017 hPa 0,0 l/m 21,3 km/h (4 Bft) W22.5 265 0 min 2,24 klux 0,00 min 11,4 C 11,7 C
29.06.2008 21:46 16,4 C 16,2 C 71 % 1017 hPa 0,0 l/m 12,3 km/h (3 Bft) W45 265 0 min 1,02 klux 0,00 min 11,1 C 13,8 C
29.06.2008 22:01 16,2 C 15,8 C 72 % 1017 hPa 0,0 l/m 6,3 km/h (2 Bft) W-SW22.5 250 0 min 336 lux 0,00 min 11,1 C 16,2 C
29.06.2008 22:17 15,7 C 15,0 C 73 % 1018 hPa 0,0 l/m 7,4 km/h (2 Bft) W22.5 265 0 min 188 lux 0,00 min 10,9 C 15,2 C
29.06.2008 22:32 15,1 C 14,2 C 73 % 1018 hPa 0,0 l/m 15,3 km/h (3 Bft) W45 260 0 min 41 lux 0,00 min 10,3 C 11,2 C
29.06.2008 22:47 14,5 C 13,3 C 74 % 1018 hPa 0,0 l/m 9,8 km/h (2 Bft) W22.5 265 0 min 7 lux 0,00 min 9,9 C 12,7 C
29.06.2008 23:01 13,8 C 12,3 C 75 % 1018 hPa 0,0 l/m 4,3 km/h (1 Bft) W 270 0 min 0 lux 0,00 min 9,4 C 13,8 C
29.06.2008 23:16 13,2 C 11,6 C 76 % 1018 hPa 0,0 l/m 2,5 km/h (1 Bft) SW 225 0 min 0 lux 0,00 min 9,1 C 13,2 C
29.06.2008 23:31 12,7 C 11,2 C 78 % 1018 hPa 0,0 l/m 4,8 km/h (1 Bft) W-SW22.5 245 0 min 0 lux 0,00 min 9,0 C 12,7 C
29.06.2008 23:46 12,4 C 10,8 C 79 % 1018 hPa 0,0 l/m 4,3 km/h (1 Bft) W-SW 255 0 min 0 lux 0,00 min 8,9 C 12,4 C
_ Min-Zeit 05:25 05:40 16:16 15:32 - 02:10 - - - - - 23:46 04:55
Minimum _ 10,8 C 10,0 C 53 % 1017 hPa - 0,0 km/h (0 Bft) - - - - - 8,9 C 5,7 C
_ Max-Zeit 16:16 16:16 03:55 00:11 00:11 11:02 - - 09:32 15:32 00:11 11:46 16:16
Maximum _ 23,2 C 28,9 C 94 % 1019 hPa 0,0 l/m 39,3 km/h
W (6 Bft)
- - 22 min 102 klux 0,00 min 13,6 C 19,1 C
Durchschnitt _ 17,2 C 17,8 C 71 % 1018 hPa #0,0 l/m 22,6 km/h (4 Bft) W-SW - #9:21 h 41,7 klux #0 min. 11,6 C 13,1 C